Szolnok, Hungary

3:49 AM CEST on July 26, 2017 (GMT +0200)
Szolnok

Weather History for LHSN - September, 2012

Change the Weather History Date:

Sunday, September 30, 2012

  Actual Average (LHBP) Record (LHBP)
Temperature  
Mean Temperature 68 °F -  
Max Temperature 75 °F 66 °F 78 °F (2011)
Min Temperature 60 °F 46 °F 37 °F (2010)
Cooling Degree Days 2    
Growing Degree Days 18 (Base 50)    
Moisture  
Dew Point 55 °F    
Average Humidity 64    
Maximum Humidity 82    
Minimum Humidity 52    
Precipitation  
Precipitation 0.00 in - - ()
Sea Level Pressure  
Sea Level Pressure 30.07 in    
Wind  
Wind Speed 6 mph ()    
Max Wind Speed 11 mph    
Max Gust Speed 22 mph    
Visibility 6.2 miles    
Events      
Averages and records for this station are not official NWS values.
T = Trace of Precipitation, MM = Missing Value Source: Averaged Metar Reports

Daily Weather History Graph

Daily Weather History Graph

Search for Another Location

Airport or City:

Trip Planner

Search our weather history database for the weather conditions in past years. The results will help you decide how hot, cold, wet, or windy it might be!

Date:

Astronomy

Sep. 30, 2012 Rise Set
Actual Time 6:36 AM CEST 6:20 PM CEST
Civil Twilight 6:06 AM CEST 6:50 PM CEST
Nautical Twilight 5:30 AM CEST 7:25 PM CEST
Astronomical Twilight 4:54 AM CEST 8:01 PM CEST
Moon 6:08 PM CEST (9/30) 6:53 AM CEST (9/30)
Length of Visible Light 12h 44m
Length of Day
11h 43m
Full, 100% of the Moon is Illuminated
Sep 30
Full
Oct 8
Last Quarter
Oct 15
New
Oct 22
First Quarter
Oct 29
Full

Hourly Weather History & Observations

Time (CEST) Temp. Dew Point Humidity Pressure Visibility Wind Dir Wind Speed Gust Speed Precip Events Conditions
12:15 AM 64.4 °F 57.2 °F 77% 29.98 in - NNW 4.5 mph - N/A   Clear
1:15 AM 64.4 °F 57.2 °F 77% 29.98 in - North 2.2 mph - N/A   Clear
1:45 AM 64.4 °F 57.2 °F 77% 29.98 in - ENE 2.2 mph - N/A   Clear
2:15 AM 64.4 °F 57.2 °F 77% 29.95 in - ENE 6.7 mph - N/A   Clear
2:45 AM 64.4 °F 57.2 °F 77% 29.95 in - East 6.7 mph - N/A   Clear
3:15 AM 62.6 °F 57.2 °F 82% 29.95 in - North 2.2 mph - N/A   Clear
3:45 AM - - N/A% - 6.2 mi North 6.7 mph - N/A   Clear
4:15 AM 62.6 °F 57.2 °F 82% 29.98 in - NW 6.7 mph - N/A   Clear
4:45 AM 62.6 °F 57.2 °F 82% 29.98 in - NW 4.5 mph - N/A   Clear
5:15 AM 62.6 °F 57.2 °F 82% 29.98 in - NNW 6.7 mph - N/A   Clear
6:15 AM 60.8 °F 55.4 °F 82% 30.01 in - NNW 8.9 mph - N/A   Clear
6:45 AM - - N/A% - 6.2 mi NNW 8.9 mph - N/A   Clear
7:15 AM 60.8 °F 55.4 °F 82% 30.04 in - North 4.5 mph - N/A   Clear
8:15 AM 62.6 °F 55.4 °F 77% 30.04 in - NNW 4.5 mph - N/A   Clear
8:45 AM 64.4 °F 55.4 °F 73% 30.06 in - NNW 4.5 mph - N/A   Clear
9:15 AM 64.4 °F 55.4 °F 73% 30.06 in - NNW 4.5 mph - N/A   Clear
9:45 AM - - N/A% - 6.2 mi NNW 6.7 mph - N/A   Clear
10:15 AM 68.0 °F 57.2 °F 68% 30.09 in - NW 6.7 mph - N/A   Clear
10:45 AM 68.0 °F 55.4 °F 64% 30.09 in - North 6.7 mph - N/A   Clear
11:15 AM 69.8 °F 57.2 °F 64% 30.09 in - NNE 6.7 mph - N/A   Clear
11:45 AM 71.6 °F 57.2 °F 60% 30.09 in - NNE 6.7 mph - N/A   Clear
12:15 PM 73.4 °F 57.2 °F 57% 30.09 in - North 6.7 mph - N/A   Clear
12:45 PM 75.2 °F 57.2 °F 53% 30.09 in - NNE 6.7 mph - N/A   Clear
1:15 PM 73.4 °F 57.2 °F 57% 30.09 in - NE 6.7 mph - N/A   Clear
1:45 PM 75.2 °F 59.0 °F 57% 30.09 in - NNE 6.7 mph - N/A   Clear
2:15 PM 75.2 °F 59.0 °F 57% 30.09 in - ENE 6.7 mph - N/A   Clear
2:45 PM 75.2 °F 57.2 °F 53% 30.09 in - ENE 6.7 mph - N/A   Clear
3:15 PM 75.2 °F 57.2 °F 53% 30.09 in - ENE 6.7 mph - N/A   Clear
3:45 PM 75.2 °F 57.2 °F 53% 30.09 in - ENE 6.7 mph - N/A   Clear
4:15 PM 75.2 °F 57.2 °F 53% 30.09 in - East 11.2 mph - N/A   Clear
4:45 PM 73.4 °F 55.4 °F 53% 30.09 in - ENE 8.9 mph - N/A   Clear
5:15 PM 73.4 °F 55.4 °F 53% 30.09 in - ENE 8.9 mph - N/A   Clear
5:45 PM 71.6 °F 55.4 °F 57% 30.12 in - ENE 8.9 mph - N/A   Clear
6:15 PM 71.6 °F 55.4 °F 57% 30.12 in - ENE 6.7 mph - N/A   Clear
6:45 PM 69.8 °F 53.6 °F 56% 30.12 in - ENE 6.7 mph - N/A   Clear
7:15 PM 69.8 °F 51.8 °F 53% 30.12 in - ENE 8.9 mph - N/A   Clear
7:45 PM 68.0 °F 51.8 °F 56% 30.12 in - ENE 8.9 mph - N/A   Clear
8:15 PM 68.0 °F 50.0 °F 52% 30.12 in - ENE 8.9 mph - N/A   Clear
8:45 PM 66.2 °F 51.8 °F 60% 30.12 in - ENE 8.9 mph - N/A   Clear
9:15 PM 66.2 °F 50.0 °F 56% 30.12 in - ENE 8.9 mph - N/A   Clear
9:45 PM 66.2 °F 50.0 °F 56% 30.12 in - ENE 11.2 mph - N/A   Clear
10:15 PM 64.4 °F 50.0 °F 59% 30.12 in - NE 11.2 mph - N/A   Clear
10:45 PM 64.4 °F 48.2 °F 56% 30.12 in - NE 11.2 mph 22.4 mph N/A   Clear
11:15 PM 64.4 °F 48.2 °F 56% 30.15 in - NE 11.2 mph - N/A   Clear
11:45 PM 62.6 °F 48.2 °F 59% 30.12 in - NE 11.2 mph - N/A   Clear